DELTA 1 DEB, 7129

Orbit data source: Space-Track

DELTA 1 DEB, 7129 is space debris in SSO originally from a launch on Tue, 06 Nov 1973 UTC launched from the Air Force Western Test Range (AFWTR). Debris objects in space refer to the collection of defunct objects orbiting the Earth. Examples of debris include non-operational satellites, rocket bodies, and fragments generated from explosions, collisions, or faulty payload assembly.

Loading next visibility...
Identifier
7129, 1973-086CT
Orbit
SSO
Country
Flag of USUS
Related business
Manufacturer
Unknown
Mission
Spacecraft
Bus & Motor
Unknown
Mass
Unknown
Launch date (UTC)
1973-11-06 (53 years ago)
Launch vehicle
Unknown
Launch site
Air Force Western Test Range (AFWTR)
Object type
Payload
Rocket body
Debris
Shape & HBR
Unknown shape, 0.2 m
Radar Cross Section
Medium (>0.1 m² and <1 m²)

Expand to show TLE details & history
Last TLE update: 16 hours ago

TLE from 16 hours ago
0 DELTA 1 DEB
1 07129U 73086CT  26255.09432383  .00000023  00000-0  68387-3 0  9995
2 07129 102.0168 105.0565 0243982 187.0949 326.5646 12.04472819317817
Epoch: 2026-09-12T02:15Z
TLE epoch observation values (Epoch: 2026-09-12T02:15:49.578Z)
Latitude
27.29653°
Longitude
-93.73273°
Altitude
1,501.679 km
Speed
7.187 km/s
True Right ascension
19h 25m 19s
True Declination
27° 10' 11"
Sunlit
Object was in daylight at epoch
Visualization orbit readout
Latitude
Unknown
Longitude
Unknown
Altitude
Unknown
Speed
Unknown
Apparent Right ascension
Unknown
Apparent Declination
Unknown
Sunlit
N/A
Visualization observer readout
Local Sidereal Time
10:18:39
Azimuth
Unknown
Elevation
Unknown
Doppler factor
Unknown
Orbital elements
Apogee altitude
1,854.597 km
Perigee altitude
1,462.437 km
Semi-major axis
8,036.654 km
Eccentricity
0.0244
Inclination
102.0168°
RAAN
105.0565°
Arg. of periapsis
187.0949°
True anomaly
324.98412°
Mean anomaly
326.5646°
Eccentric anomaly
325.77842°
Mean motion
3.01252 °/min
Orbital period
119.5 mins
BSTAR
0.00068387
Loading maneuver chart data...
Computing Atmospheric mass density...
Loading historical data...
Loading historical data...
Loading historical data...
Loading historical data...
Loading historical data...
Loading historical data...
Loading historical data...

Documentation

Showing up to 5 results
|